Year,Month,Day,Hour,Minute,Value (Times are PST for windspeed in km/hr)
2012,09,09,00,00,0.00
2012,09,09,00,01,0.40
2012,09,09,00,02,1.00
2012,09,09,00,03,4.00
2012,09,09,00,04,3.30
2012,09,09,00,05,1.20
2012,09,09,00,06,3.50
2012,09,09,00,07,1.00
2012,09,09,00,08,0.10
2012,09,09,00,09,0.00
2012,09,09,00,10,0.00
2012,09,09,00,11,0.10
2012,09,09,00,12,0.00
2012,09,09,00,13,0.00
2012,09,09,00,14,0.00
2012,09,09,00,15,0.00
2012,09,09,00,16,0.00
2012,09,09,00,17,0.00
2012,09,09,00,18,0.00
2012,09,09,00,19,0.00
2012,09,09,00,20,0.40
2012,09,09,00,21,0.00
2012,09,09,00,22,0.00
2012,09,09,00,23,0.10
2012,09,09,00,24,0.00
2012,09,09,00,25,0.00
2012,09,09,00,26,0.00
2012,09,09,00,27,0.00
2012,09,09,00,28,0.00
2012,09,09,00,29,0.00
2012,09,09,00,30,0.00
2012,09,09,00,31,0.00
2012,09,09,00,32,0.10
2012,09,09,00,33,0.10
2012,09,09,00,34,0.00
2012,09,09,00,35,0.00
2012,09,09,00,36,0.00
2012,09,09,00,37,0.00
2012,09,09,00,38,0.00
2012,09,09,00,39,0.00
2012,09,09,00,40,0.00
2012,09,09,00,41,0.00
2012,09,09,00,42,0.00
2012,09,09,00,43,0.00
2012,09,09,00,44,0.00
2012,09,09,00,45,0.00
2012,09,09,00,46,0.10
2012,09,09,00,47,1.30
2012,09,09,00,48,3.40
2012,09,09,00,49,0.60
2012,09,09,00,50,0.80
2012,09,09,00,51,0.20
2012,09,09,00,52,4.00
2012,09,09,00,53,4.30
2012,09,09,00,54,3.30
2012,09,09,00,55,0.00
2012,09,09,00,56,0.00
2012,09,09,00,57,0.00
2012,09,09,00,58,0.10
2012,09,09,00,59,0.00
2012,09,09,01,00,0.10
2012,09,09,01,01,0.20
2012,09,09,01,02,0.00
2012,09,09,01,03,0.00
2012,09,09,01,04,1.00
2012,09,09,01,05,3.50
2012,09,09,01,06,0.10
2012,09,09,01,07,0.00
2012,09,09,01,08,0.00
2012,09,09,01,09,0.00
2012,09,09,01,10,0.00
2012,09,09,01,11,0.00
2012,09,09,01,12,0.00
2012,09,09,01,13,0.00
2012,09,09,01,14,0.00
2012,09,09,01,15,0.00
2012,09,09,01,16,0.00
2012,09,09,01,17,0.00
2012,09,09,01,18,0.00
2012,09,09,01,19,0.00
2012,09,09,01,20,0.00
2012,09,09,01,21,0.00
2012,09,09,01,22,0.00
2012,09,09,01,23,0.00
2012,09,09,01,24,0.00
2012,09,09,01,25,0.00
2012,09,09,01,26,0.00
2012,09,09,01,27,0.20
2012,09,09,01,28,3.00
2012,09,09,01,29,1.20
2012,09,09,01,30,0.00
2012,09,09,01,31,0.00
2012,09,09,01,32,0.00
2012,09,09,01,33,0.00
2012,09,09,01,34,0.00
2012,09,09,01,35,0.00
2012,09,09,01,36,0.00
2012,09,09,01,37,0.00
2012,09,09,01,38,0.00
2012,09,09,01,39,0.00
2012,09,09,01,40,0.00
2012,09,09,01,41,0.10
2012,09,09,01,42,0.10
2012,09,09,01,43,0.10
2012,09,09,01,44,0.00
2012,09,09,01,45,0.00
2012,09,09,01,46,0.00
2012,09,09,01,47,0.00
2012,09,09,01,48,0.00
2012,09,09,01,49,0.00
2012,09,09,01,50,0.00
2012,09,09,01,51,0.00
2012,09,09,01,52,0.00
2012,09,09,01,53,0.00
2012,09,09,01,54,0.00
2012,09,09,01,55,0.00
2012,09,09,01,56,0.00
2012,09,09,01,57,0.00
2012,09,09,01,58,0.00
2012,09,09,01,59,0.00
2012,09,09,02,00,0.00
2012,09,09,02,01,0.00
2012,09,09,02,02,0.00
2012,09,09,02,03,0.10
2012,09,09,02,04,0.00
2012,09,09,02,05,0.00
2012,09,09,02,06,0.00
2012,09,09,02,07,0.00
2012,09,09,02,08,0.10
2012,09,09,02,09,0.00
2012,09,09,02,10,0.00
2012,09,09,02,11,0.00
2012,09,09,02,12,0.00
2012,09,09,02,13,0.00
2012,09,09,02,14,0.00
2012,09,09,02,15,0.00
2012,09,09,02,16,0.10
2012,09,09,02,17,0.00
2012,09,09,02,18,0.10
2012,09,09,02,19,0.00
2012,09,09,02,20,0.00
2012,09,09,02,21,0.00
2012,09,09,02,22,0.00
2012,09,09,02,23,0.00
2012,09,09,02,24,0.10
2012,09,09,02,25,0.00
2012,09,09,02,26,0.20
2012,09,09,02,27,2.10
2012,09,09,02,28,0.00
2012,09,09,02,29,0.00
2012,09,09,02,30,0.00
2012,09,09,02,31,0.00
2012,09,09,02,32,0.00
2012,09,09,02,33,0.00
2012,09,09,02,34,0.00
2012,09,09,02,35,0.10
2012,09,09,02,36,0.00
2012,09,09,02,37,0.00
2012,09,09,02,38,0.00
2012,09,09,02,39,0.00
2012,09,09,02,40,0.00
2012,09,09,02,41,0.00
2012,09,09,02,42,0.00
2012,09,09,02,43,0.00
2012,09,09,02,44,0.00
2012,09,09,02,45,0.00
2012,09,09,02,46,0.00
2012,09,09,02,47,0.00
2012,09,09,02,48,0.00
2012,09,09,02,49,0.00
2012,09,09,02,50,0.00
2012,09,09,02,51,0.00
2012,09,09,02,52,0.10
2012,09,09,02,53,0.00
2012,09,09,02,54,0.00
2012,09,09,02,55,0.10
2012,09,09,02,56,0.00
2012,09,09,02,57,0.00
2012,09,09,02,58,0.00
2012,09,09,02,59,0.00
2012,09,09,03,00,0.00
2012,09,09,03,01,0.00
2012,09,09,03,02,0.00
2012,09,09,03,03,0.00
2012,09,09,03,04,0.00
2012,09,09,03,05,0.40
2012,09,09,03,06,3.10
2012,09,09,03,07,1.30
2012,09,09,03,08,0.00
2012,09,09,03,09,0.00
2012,09,09,03,10,0.00
2012,09,09,03,11,0.00
2012,09,09,03,12,0.00
2012,09,09,03,13,0.00
2012,09,09,03,14,0.00
2012,09,09,03,15,0.20
2012,09,09,03,16,0.20
2012,09,09,03,17,1.60
2012,09,09,03,18,1.60
2012,09,09,03,19,0.00
2012,09,09,03,20,0.00
2012,09,09,03,21,0.00
2012,09,09,03,22,0.00
2012,09,09,03,23,0.00
2012,09,09,03,24,0.00
2012,09,09,03,25,0.00
2012,09,09,03,26,0.00
2012,09,09,03,27,0.00
2012,09,09,03,28,0.00
2012,09,09,03,29,0.00
2012,09,09,03,30,0.00
2012,09,09,03,31,0.00
2012,09,09,03,32,0.00
2012,09,09,03,33,0.00
2012,09,09,03,34,0.00
2012,09,09,03,35,0.00
2012,09,09,03,36,0.00
2012,09,09,03,37,0.00
2012,09,09,03,38,0.00
2012,09,09,03,39,0.00
2012,09,09,03,40,0.00
2012,09,09,03,41,0.10
2012,09,09,03,42,0.00
2012,09,09,03,43,0.00
2012,09,09,03,44,0.00
2012,09,09,03,45,0.00
2012,09,09,03,46,0.00
2012,09,09,03,47,0.00
2012,09,09,03,48,0.00
2012,09,09,03,49,0.00
2012,09,09,03,50,0.00
2012,09,09,03,51,0.00
2012,09,09,03,52,0.00
2012,09,09,03,53,0.00
2012,09,09,03,54,0.00
2012,09,09,03,55,0.00
2012,09,09,03,56,0.10
2012,09,09,03,57,0.00
2012,09,09,03,58,0.00
2012,09,09,03,59,0.00
2012,09,09,04,00,0.00
2012,09,09,04,01,0.00
2012,09,09,04,02,0.00
2012,09,09,04,03,0.20
2012,09,09,04,04,0.00
2012,09,09,04,05,0.20
2012,09,09,04,06,0.00
2012,09,09,04,07,0.00
2012,09,09,04,08,0.00
2012,09,09,04,09,0.30
2012,09,09,04,10,0.00
2012,09,09,04,11,0.00
2012,09,09,04,12,0.00
2012,09,09,04,13,1.00
2012,09,09,04,14,0.50
2012,09,09,04,15,1.50
2012,09,09,04,16,3.40
2012,09,09,04,17,0.20
2012,09,09,04,18,2.80
2012,09,09,04,19,0.60
2012,09,09,04,20,0.10
2012,09,09,04,21,0.10
2012,09,09,04,22,0.50
2012,09,09,04,23,2.70
2012,09,09,04,24,0.10
2012,09,09,04,25,0.10
2012,09,09,04,26,0.80
2012,09,09,04,27,0.00
2012,09,09,04,28,0.00
2012,09,09,04,29,0.00
2012,09,09,04,30,0.00
2012,09,09,04,31,0.20
2012,09,09,04,32,0.10
2012,09,09,04,33,0.20
2012,09,09,04,34,0.00
2012,09,09,04,35,0.00
2012,09,09,04,36,0.00
2012,09,09,04,37,0.00
2012,09,09,04,38,0.00
2012,09,09,04,39,0.20
2012,09,09,04,40,0.00
2012,09,09,04,41,0.10
2012,09,09,04,42,0.60
2012,09,09,04,43,0.10
2012,09,09,04,44,0.00
2012,09,09,04,45,0.00
2012,09,09,04,46,0.10
2012,09,09,04,47,0.00
2012,09,09,04,48,0.10
2012,09,09,04,49,0.50
2012,09,09,04,50,0.10
2012,09,09,04,51,1.20
2012,09,09,04,52,0.10
2012,09,09,04,53,0.00
2012,09,09,04,54,0.00
2012,09,09,04,55,0.00
2012,09,09,04,56,0.00
2012,09,09,04,57,0.00
2012,09,09,04,58,0.00
2012,09,09,04,59,0.40
2012,09,09,05,00,0.10
2012,09,09,05,01,0.50
2012,09,09,05,02,0.00
2012,09,09,05,03,0.00
2012,09,09,05,04,0.00
2012,09,09,05,05,0.00
2012,09,09,05,06,0.00
2012,09,09,05,07,0.00
2012,09,09,05,08,0.00
2012,09,09,05,09,0.00
2012,09,09,05,10,0.00
2012,09,09,05,11,0.00
2012,09,09,05,12,0.00
2012,09,09,05,13,0.00
2012,09,09,05,14,0.00
2012,09,09,05,15,0.00
2012,09,09,05,16,0.00
2012,09,09,05,17,0.00
2012,09,09,05,18,0.00
2012,09,09,05,19,0.00
2012,09,09,05,20,0.00
2012,09,09,05,21,0.00
2012,09,09,05,22,1.40
2012,09,09,05,23,0.10
2012,09,09,05,24,1.90
2012,09,09,05,25,1.30
2012,09,09,05,26,0.40
2012,09,09,05,27,2.00
2012,09,09,05,28,2.00
2012,09,09,05,29,3.10
2012,09,09,05,30,0.80
2012,09,09,05,31,0.80
2012,09,09,05,32,0.10
2012,09,09,05,33,0.10
2012,09,09,05,34,1.40
2012,09,09,05,35,0.10
2012,09,09,05,36,0.10
2012,09,09,05,37,0.10
2012,09,09,05,38,0.10
2012,09,09,05,39,1.30
2012,09,09,05,40,0.40
2012,09,09,05,41,0.20
2012,09,09,05,42,0.00
2012,09,09,05,43,0.00
2012,09,09,05,44,0.20
2012,09,09,05,45,1.00
2012,09,09,05,46,0.00
2012,09,09,05,47,0.20
2012,09,09,05,48,0.40
2012,09,09,05,49,1.00
2012,09,09,05,50,1.30
2012,09,09,05,51,0.00
2012,09,09,05,52,0.90
2012,09,09,05,53,1.30
2012,09,09,05,54,0.30
2012,09,09,05,55,0.80
2012,09,09,05,56,0.10
2012,09,09,05,57,0.00
2012,09,09,05,58,0.00
2012,09,09,05,59,0.10
2012,09,09,06,00,0.00
2012,09,09,06,01,0.00
2012,09,09,06,02,2.90
2012,09,09,06,03,1.80
2012,09,09,06,04,2.30
2012,09,09,06,05,0.20
2012,09,09,06,06,0.20
2012,09,09,06,07,0.10
2012,09,09,06,08,0.00
2012,09,09,06,09,0.00
2012,09,09,06,10,0.00
2012,09,09,06,11,0.40
2012,09,09,06,12,2.10
2012,09,09,06,13,0.00
2012,09,09,06,14,0.70
2012,09,09,06,15,2.30
2012,09,09,06,16,0.20
2012,09,09,06,17,0.10
2012,09,09,06,18,0.00
2012,09,09,06,19,0.30
2012,09,09,06,20,6.40
2012,09,09,06,21,3.90
2012,09,09,06,22,2.60
2012,09,09,06,23,0.10
2012,09,09,06,24,0.00
2012,09,09,06,25,1.90
2012,09,09,06,26,1.70
2012,09,09,06,27,7.10
2012,09,09,06,28,7.70
2012,09,09,06,29,6.30
2012,09,09,06,30,4.50
2012,09,09,06,31,1.80
2012,09,09,06,32,1.60
2012,09,09,06,33,6.20
2012,09,09,06,34,5.30
2012,09,09,06,35,3.30
2012,09,09,06,36,3.60
2012,09,09,06,37,4.90
2012,09,09,06,38,1.80
2012,09,09,06,39,1.40
2012,09,09,06,40,4.30
2012,09,09,06,41,2.60
2012,09,09,06,42,1.40
2012,09,09,06,43,1.00
2012,09,09,06,44,4.20
2012,09,09,06,45,2.30
2012,09,09,06,46,2.20
2012,09,09,06,47,4.80
2012,09,09,06,48,5.60
2012,09,09,06,49,5.80
2012,09,09,06,50,7.70
2012,09,09,06,51,3.50
2012,09,09,06,52,8.50
2012,09,09,06,53,5.40
2012,09,09,06,54,4.60
2012,09,09,06,55,5.70
2012,09,09,06,56,6.40
2012,09,09,06,57,10.80
2012,09,09,06,58,6.80
2012,09,09,06,59,4.90
2012,09,09,07,00,3.60
2012,09,09,07,01,4.10
2012,09,09,07,02,5.20
2012,09,09,07,03,11.00
2012,09,09,07,04,3.50
2012,09,09,07,05,2.40
2012,09,09,07,06,2.00
2012,09,09,07,07,1.00
2012,09,09,07,08,2.00
2012,09,09,07,09,7.30
2012,09,09,07,10,8.40
2012,09,09,07,11,8.50
2012,09,09,07,12,8.10
2012,09,09,07,13,8.20
2012,09,09,07,14,4.60
2012,09,09,07,15,4.40
2012,09,09,07,16,8.60
2012,09,09,07,17,3.30
2012,09,09,07,18,1.70
2012,09,09,07,19,0.80
2012,09,09,07,20,2.80
2012,09,09,07,21,0.80
2012,09,09,07,22,7.40
2012,09,09,07,23,5.60
2012,09,09,07,24,11.70
2012,09,09,07,25,8.90
2012,09,09,07,26,5.10
2012,09,09,07,27,7.60
2012,09,09,07,28,6.70
2012,09,09,07,29,4.50
2012,09,09,07,30,7.10
2012,09,09,07,31,6.40
2012,09,09,07,32,8.50
2012,09,09,07,33,4.80
2012,09,09,07,34,4.30
2012,09,09,07,35,0.60
2012,09,09,07,36,2.90
2012,09,09,07,37,0.40
2012,09,09,07,38,0.30
2012,09,09,07,39,0.20
2012,09,09,07,40,4.40
2012,09,09,07,41,3.30
2012,09,09,07,42,0.90
2012,09,09,07,43,0.20
2012,09,09,07,44,0.10
2012,09,09,07,45,1.40
2012,09,09,07,46,0.30
2012,09,09,07,47,0.10
2012,09,09,07,48,0.10
2012,09,09,07,49,0.00
2012,09,09,07,50,0.20
2012,09,09,07,51,0.60
2012,09,09,07,52,1.50
2012,09,09,07,53,0.10
2012,09,09,07,54,0.10
2012,09,09,07,55,0.00
2012,09,09,07,56,0.00
2012,09,09,07,57,0.00
2012,09,09,07,58,0.00
2012,09,09,07,59,0.00
2012,09,09,08,00,0.00
2012,09,09,08,01,0.00
2012,09,09,08,02,0.00
2012,09,09,08,03,0.00
2012,09,09,08,04,0.00
2012,09,09,08,05,0.00
2012,09,09,08,06,0.00
2012,09,09,08,07,0.00
2012,09,09,08,08,0.00
2012,09,09,08,09,0.00
2012,09,09,08,10,0.10
2012,09,09,08,11,0.00
2012,09,09,08,12,0.00
2012,09,09,08,13,0.00
2012,09,09,08,14,0.00
2012,09,09,08,15,0.00
2012,09,09,08,16,0.00
2012,09,09,08,17,0.00
2012,09,09,08,18,0.00
2012,09,09,08,19,0.00
2012,09,09,08,20,0.00
2012,09,09,08,21,0.00
2012,09,09,08,22,0.00
2012,09,09,08,23,0.00
2012,09,09,08,24,0.00
2012,09,09,08,25,0.10
2012,09,09,08,26,0.00
2012,09,09,08,27,0.00
2012,09,09,08,28,0.00
2012,09,09,08,29,0.70
2012,09,09,08,30,0.60
2012,09,09,08,31,0.00
2012,09,09,08,32,0.00
2012,09,09,08,33,0.00
2012,09,09,08,34,0.00
2012,09,09,08,35,0.00
2012,09,09,08,36,0.00
2012,09,09,08,37,0.50
2012,09,09,08,38,0.00
2012,09,09,08,39,0.00
2012,09,09,08,40,0.00
2012,09,09,08,41,0.00
2012,09,09,08,42,0.00
2012,09,09,08,43,0.20
2012,09,09,08,44,0.20
2012,09,09,08,45,0.00
2012,09,09,08,46,0.00
2012,09,09,08,47,0.00
2012,09,09,08,48,0.00
2012,09,09,08,49,0.00
2012,09,09,08,50,0.00
2012,09,09,08,51,0.60
2012,09,09,08,52,0.10
2012,09,09,08,53,0.00
2012,09,09,08,54,1.00
2012,09,09,08,55,0.10
2012,09,09,08,56,0.20
2012,09,09,08,57,0.60
2012,09,09,08,58,0.00
2012,09,09,08,59,0.00
2012,09,09,09,00,0.00
2012,09,09,09,01,0.10
2012,09,09,09,02,0.00
2012,09,09,09,03,0.00
2012,09,09,09,04,0.00
2012,09,09,09,05,0.00
2012,09,09,09,06,0.10
2012,09,09,09,07,0.10
2012,09,09,09,08,0.00
2012,09,09,09,09,0.30
2012,09,09,09,10,1.50
2012,09,09,09,11,1.30
2012,09,09,09,12,0.20
2012,09,09,09,13,1.70
2012,09,09,09,14,5.70
2012,09,09,09,15,4.20
2012,09,09,09,16,5.20
2012,09,09,09,17,2.90
2012,09,09,09,18,2.50
2012,09,09,09,19,3.30
2012,09,09,09,20,0.90
2012,09,09,09,21,4.50
2012,09,09,09,22,3.50
2012,09,09,09,23,2.10
2012,09,09,09,24,3.70
2012,09,09,09,25,1.50
2012,09,09,09,26,1.90
2012,09,09,09,27,0.90
2012,09,09,09,28,1.00
2012,09,09,09,29,1.10
2012,09,09,09,30,3.20
2012,09,09,09,31,5.80
2012,09,09,09,32,4.80
2012,09,09,09,33,1.20
2012,09,09,09,34,2.50
2012,09,09,09,35,5.60
2012,09,09,09,36,2.50
2012,09,09,09,37,4.10
2012,09,09,09,38,0.90
2012,09,09,09,39,3.20
2012,09,09,09,40,2.90
2012,09,09,09,41,1.10
2012,09,09,09,42,0.00
2012,09,09,09,43,2.40
2012,09,09,09,44,1.30
2012,09,09,09,45,1.20
2012,09,09,09,46,2.60
2012,09,09,09,47,2.90
2012,09,09,09,48,1.90
2012,09,09,09,49,4.20
2012,09,09,09,50,5.20
2012,09,09,09,51,5.60
2012,09,09,09,52,4.00
2012,09,09,09,53,5.30
2012,09,09,09,54,3.90
2012,09,09,09,55,3.00
2012,09,09,09,56,0.30
2012,09,09,09,57,4.20
2012,09,09,09,58,4.60
2012,09,09,09,59,3.90
2012,09,09,10,00,8.50
2012,09,09,10,01,8.70
2012,09,09,10,02,4.70
2012,09,09,10,03,1.90
2012,09,09,10,04,6.40
2012,09,09,10,05,8.20
2012,09,09,10,06,4.80
2012,09,09,10,07,0.40
2012,09,09,10,08,5.20
2012,09,09,10,09,6.60
2012,09,09,10,10,6.80
2012,09,09,10,11,4.50
2012,09,09,10,12,5.70
2012,09,09,10,13,4.30
2012,09,09,10,14,4.30
2012,09,09,10,15,7.10
2012,09,09,10,16,6.90
2012,09,09,10,17,7.00
2012,09,09,10,18,4.00
2012,09,09,10,19,7.10
2012,09,09,10,20,8.00
2012,09,09,10,21,5.50
2012,09,09,10,22,3.10
2012,09,09,10,23,2.70
2012,09,09,10,24,3.00
2012,09,09,10,25,2.30
2012,09,09,10,26,4.50
2012,09,09,10,27,2.30
2012,09,09,10,28,7.20
2012,09,09,10,29,0.40
2012,09,09,10,30,3.20
2012,09,09,10,31,6.90
2012,09,09,10,32,3.20
2012,09,09,10,33,7.90
2012,09,09,10,34,2.40
2012,09,09,10,35,6.70
2012,09,09,10,36,4.30
2012,09,09,10,37,5.10
2012,09,09,10,38,6.90
2012,09,09,10,39,1.90
2012,09,09,10,40,5.10
2012,09,09,10,41,3.40
2012,09,09,10,42,10.00
2012,09,09,10,43,4.70
2012,09,09,10,44,4.20
2012,09,09,10,45,7.00
2012,09,09,10,46,3.30
2012,09,09,10,47,3.90
2012,09,09,10,48,8.00
2012,09,09,10,49,4.50
2012,09,09,10,50,0.30
2012,09,09,10,51,0.60
2012,09,09,10,52,5.70
2012,09,09,10,53,5.80
2012,09,09,10,54,7.50
2012,09,09,10,55,4.10
2012,09,09,10,56,6.40
2012,09,09,10,57,6.00
2012,09,09,10,58,3.90
2012,09,09,10,59,4.70
2012,09,09,11,00,5.10
2012,09,09,11,01,8.30
2012,09,09,11,02,5.50
2012,09,09,11,03,4.20
2012,09,09,11,04,1.30
2012,09,09,11,05,4.30
2012,09,09,11,06,1.50
2012,09,09,11,07,0.90
2012,09,09,11,08,8.00
2012,09,09,11,09,4.80
2012,09,09,11,10,5.00
2012,09,09,11,11,8.10
2012,09,09,11,12,4.30
2012,09,09,11,13,2.60
2012,09,09,11,14,5.10
2012,09,09,11,15,9.00
2012,09,09,11,16,1.90
2012,09,09,11,17,9.00
2012,09,09,11,18,2.20
2012,09,09,11,19,6.40
2012,09,09,11,20,4.10
2012,09,09,11,21,8.00
2012,09,09,11,22,8.50
2012,09,09,11,23,3.50
2012,09,09,11,24,1.90
2012,09,09,11,25,0.50
2012,09,09,11,26,5.90
2012,09,09,11,27,1.60
2012,09,09,11,28,2.90
2012,09,09,11,29,2.20
2012,09,09,11,30,0.40
2012,09,09,11,31,0.10
2012,09,09,11,32,3.10
2012,09,09,11,33,6.60
2012,09,09,11,34,2.40
2012,09,09,11,35,0.00
2012,09,09,11,36,2.80
2012,09,09,11,37,5.30
2012,09,09,11,38,1.80
2012,09,09,11,39,2.60
2012,09,09,11,40,4.10
2012,09,09,11,41,2.50
2012,09,09,11,42,0.50
2012,09,09,11,43,1.80
2012,09,09,11,44,4.00
2012,09,09,11,45,6.40
2012,09,09,11,46,1.00
2012,09,09,11,47,1.30
2012,09,09,11,48,2.90
2012,09,09,11,49,3.00
2012,09,09,11,50,1.00
2012,09,09,11,51,0.90
2012,09,09,11,52,4.40
2012,09,09,11,53,0.60
2012,09,09,11,54,1.90
2012,09,09,11,55,3.40
2012,09,09,11,56,3.90
2012,09,09,11,57,0.30
2012,09,09,11,58,1.00
2012,09,09,11,59,2.70
2012,09,09,12,00,2.20
2012,09,09,12,01,3.10
2012,09,09,12,02,1.10
2012,09,09,12,03,0.10
2012,09,09,12,04,6.90
2012,09,09,12,05,5.00
2012,09,09,12,06,4.30
2012,09,09,12,07,2.70
2012,09,09,12,08,5.70
2012,09,09,12,09,3.50
2012,09,09,12,10,3.10
2012,09,09,12,11,3.50
2012,09,09,12,12,4.10
2012,09,09,12,13,7.20
2012,09,09,12,14,7.00
2012,09,09,12,15,3.50
2012,09,09,12,16,4.40
2012,09,09,12,17,5.40
2012,09,09,12,18,6.90
2012,09,09,12,19,2.30
2012,09,09,12,20,5.80
2012,09,09,12,21,7.10
2012,09,09,12,22,6.70
2012,09,09,12,23,6.20
2012,09,09,12,24,3.20
2012,09,09,12,25,5.80
2012,09,09,12,26,4.10
2012,09,09,12,27,3.90
2012,09,09,12,28,4.30
2012,09,09,12,29,2.10
2012,09,09,12,30,3.30
2012,09,09,12,31,1.80
2012,09,09,12,32,0.80
2012,09,09,12,33,1.50
2012,09,09,12,34,5.70
2012,09,09,12,35,4.30
2012,09,09,12,36,2.70
2012,09,09,12,37,7.40
2012,09,09,12,38,9.70
2012,09,09,12,39,2.70
2012,09,09,12,40,6.80
2012,09,09,12,41,4.70
2012,09,09,12,42,4.70
2012,09,09,12,43,4.70
2012,09,09,12,44,9.00
2012,09,09,12,45,4.50
2012,09,09,12,46,3.90
2012,09,09,12,47,5.60
2012,09,09,12,48,4.70
2012,09,09,12,49,3.00
2012,09,09,12,50,5.00
2012,09,09,12,51,6.20
2012,09,09,12,52,5.20
2012,09,09,12,53,7.50
2012,09,09,12,54,6.80
2012,09,09,12,55,5.20
2012,09,09,12,56,3.00
2012,09,09,12,57,3.50
2012,09,09,12,58,3.70
2012,09,09,12,59,7.20
2012,09,09,13,00,3.60
2012,09,09,13,01,0.60
2012,09,09,13,02,2.50
2012,09,09,13,03,9.00
2012,09,09,13,04,3.70
2012,09,09,13,05,9.00
2012,09,09,13,06,7.20
2012,09,09,13,07,8.50
2012,09,09,13,08,5.40
2012,09,09,13,09,5.20
2012,09,09,13,10,6.40
2012,09,09,13,11,7.60
2012,09,09,13,12,8.00
2012,09,09,13,13,5.10
2012,09,09,13,14,4.40
2012,09,09,13,15,1.80
2012,09,09,13,16,6.80
2012,09,09,13,17,5.50
2012,09,09,13,18,10.80
2012,09,09,13,19,8.20
2012,09,09,13,20,5.30
2012,09,09,13,21,7.20
2012,09,09,13,22,10.90
2012,09,09,13,23,6.60
2012,09,09,13,24,7.50
2012,09,09,13,25,7.50
2012,09,09,13,26,6.80
2012,09,09,13,27,7.20
2012,09,09,13,28,9.90
2012,09,09,13,29,8.70
2012,09,09,13,30,7.70
2012,09,09,13,31,7.10
2012,09,09,13,32,7.30
2012,09,09,13,33,3.50
2012,09,09,13,34,3.70
2012,09,09,13,35,6.90
2012,09,09,13,36,5.10
2012,09,09,13,37,3.10
2012,09,09,13,38,5.80
2012,09,09,13,39,3.40
2012,09,09,13,40,7.90
2012,09,09,13,41,4.40
2012,09,09,13,42,3.90
2012,09,09,13,43,0.80
2012,09,09,13,44,10.30
2012,09,09,13,45,7.50
2012,09,09,13,46,5.40
2012,09,09,13,47,3.60
2012,09,09,13,48,10.00
2012,09,09,13,49,6.60
2012,09,09,13,50,2.60
2012,09,09,13,51,10.10
2012,09,09,13,52,2.30
2012,09,09,13,53,6.30
2012,09,09,13,54,6.10
2012,09,09,13,55,2.00
2012,09,09,13,56,6.70
2012,09,09,13,57,11.30
2012,09,09,13,58,5.60
2012,09,09,13,59,2.40
2012,09,09,14,00,6.80
2012,09,09,14,01,7.00
2012,09,09,14,02,4.90
2012,09,09,14,03,5.70
2012,09,09,14,04,5.50
2012,09,09,14,05,4.60
2012,09,09,14,06,3.40
2012,09,09,14,07,7.00
2012,09,09,14,08,5.80
2012,09,09,14,09,6.40
2012,09,09,14,10,3.10
2012,09,09,14,11,11.10
2012,09,09,14,12,11.10
2012,09,09,14,13,7.80
2012,09,09,14,14,10.40
2012,09,09,14,15,6.00
2012,09,09,14,16,5.90
2012,09,09,14,17,5.60
2012,09,09,14,18,11.80
2012,09,09,14,19,7.90
2012,09,09,14,20,13.30
2012,09,09,14,21,6.10
2012,09,09,14,22,6.80
2012,09,09,14,23,8.80
2012,09,09,14,24,14.60
2012,09,09,14,25,12.00
2012,09,09,14,26,9.30
2012,09,09,14,27,6.90
2012,09,09,14,28,9.10
2012,09,09,14,29,3.90
2012,09,09,14,30,6.40
2012,09,09,14,31,10.30
2012,09,09,14,32,10.50
2012,09,09,14,33,7.30
2012,09,09,14,34,4.20
2012,09,09,14,35,7.00
2012,09,09,14,36,9.60
2012,09,09,14,37,6.40
2012,09,09,14,38,11.80
2012,09,09,14,39,9.60
2012,09,09,14,40,9.10
2012,09,09,14,41,10.70
2012,09,09,14,42,9.70
2012,09,09,14,43,9.30
2012,09,09,14,44,8.70
2012,09,09,14,45,8.40
2012,09,09,14,46,12.50
2012,09,09,14,47,11.10
2012,09,09,14,48,10.60
2012,09,09,14,49,10.30
2012,09,09,14,50,9.40
2012,09,09,14,51,8.10
2012,09,09,14,52,11.80
2012,09,09,14,53,8.50
2012,09,09,14,54,14.50
2012,09,09,14,55,7.60
2012,09,09,14,56,10.10
2012,09,09,14,57,11.40
2012,09,09,14,58,8.70
2012,09,09,14,59,14.10
2012,09,09,15,00,13.30
2012,09,09,15,01,7.20
2012,09,09,15,02,11.50
2012,09,09,15,03,15.20
2012,09,09,15,04,11.30
2012,09,09,15,05,10.40
2012,09,09,15,06,11.40
2012,09,09,15,07,13.00
2012,09,09,15,08,11.80
2012,09,09,15,09,7.20
2012,09,09,15,10,11.40
2012,09,09,15,11,8.50
2012,09,09,15,12,13.00
2012,09,09,15,13,13.00
2012,09,09,15,14,15.80
2012,09,09,15,15,14.20
2012,09,09,15,16,11.30
2012,09,09,15,17,9.50
2012,09,09,15,18,2.90
2012,09,09,15,19,9.70
2012,09,09,15,20,13.70
2012,09,09,15,21,8.90
2012,09,09,15,22,9.90
2012,09,09,15,23,14.40
2012,09,09,15,24,7.20
2012,09,09,15,25,8.00
2012,09,09,15,26,15.60
2012,09,09,15,27,13.40
2012,09,09,15,28,17.00
2012,09,09,15,29,6.80
2012,09,09,15,30,12.60
2012,09,09,15,31,10.70
2012,09,09,15,32,10.50
2012,09,09,15,33,13.60
2012,09,09,15,34,8.00
2012,09,09,15,35,9.20
2012,09,09,15,36,7.50
2012,09,09,15,37,9.80
2012,09,09,15,38,8.40
2012,09,09,15,39,6.30
2012,09,09,15,40,10.40
2012,09,09,15,41,9.20
2012,09,09,15,42,7.00
2012,09,09,15,43,8.70
2012,09,09,15,44,4.90
2012,09,09,15,45,13.60
2012,09,09,15,46,10.10
2012,09,09,15,47,5.10
2012,09,09,15,48,6.80
2012,09,09,15,49,6.90
2012,09,09,15,50,11.80
2012,09,09,15,51,8.10
2012,09,09,15,52,7.60
2012,09,09,15,53,7.70
2012,09,09,15,54,7.60
2012,09,09,15,55,7.70
2012,09,09,15,56,3.50
2012,09,09,15,57,3.30
2012,09,09,15,58,3.90
2012,09,09,15,59,3.40
2012,09,09,16,00,11.30
2012,09,09,16,01,7.70
2012,09,09,16,02,7.70
2012,09,09,16,03,6.30
2012,09,09,16,04,3.30
2012,09,09,16,05,3.10
2012,09,09,16,06,7.70
2012,09,09,16,07,9.00
2012,09,09,16,08,10.70
2012,09,09,16,09,6.30
2012,09,09,16,10,4.90
2012,09,09,16,11,6.80
2012,09,09,16,12,2.40
2012,09,09,16,13,2.40
2012,09,09,16,14,7.20
2012,09,09,16,15,4.60
2012,09,09,16,16,8.10
2012,09,09,16,17,5.40
2012,09,09,16,18,3.20
2012,09,09,16,19,2.40
2012,09,09,16,20,3.80
2012,09,09,16,21,7.80
2012,09,09,16,22,3.10
2012,09,09,16,23,3.70
2012,09,09,16,24,5.20
2012,09,09,16,25,4.70
2012,09,09,16,26,6.70
2012,09,09,16,27,6.00
2012,09,09,16,28,7.60
2012,09,09,16,29,5.30
2012,09,09,16,30,4.00
2012,09,09,16,31,5.80
2012,09,09,16,32,4.30
2012,09,09,16,33,8.10
2012,09,09,16,34,11.30
2012,09,09,16,35,7.90
2012,09,09,16,36,5.30
2012,09,09,16,37,7.50
2012,09,09,16,38,7.00
2012,09,09,16,39,8.80
2012,09,09,16,40,5.10
2012,09,09,16,41,7.20
2012,09,09,16,42,1.80
2012,09,09,16,43,4.00
2012,09,09,16,44,4.10
2012,09,09,16,45,7.90
2012,09,09,16,46,4.00
2012,09,09,16,47,4.30
2012,09,09,16,48,5.90
2012,09,09,16,49,6.00
2012,09,09,16,50,8.40
2012,09,09,16,51,8.50
2012,09,09,16,52,5.60
2012,09,09,16,53,5.10
2012,09,09,16,54,2.50
2012,09,09,16,55,4.10
2012,09,09,16,56,5.50
2012,09,09,16,57,7.60
2012,09,09,16,58,3.00
2012,09,09,16,59,1.00
2012,09,09,17,00,0.30
2012,09,09,17,01,2.60
2012,09,09,17,02,0.20
2012,09,09,17,03,3.10
2012,09,09,17,04,2.40
2012,09,09,17,05,6.10
2012,09,09,17,06,3.70
2012,09,09,17,07,12.20
2012,09,09,17,08,7.20
2012,09,09,17,09,3.00
2012,09,09,17,10,8.40
2012,09,09,17,11,6.40
2012,09,09,17,12,3.00
2012,09,09,17,13,7.60
2012,09,09,17,14,4.30
2012,09,09,17,15,8.60
2012,09,09,17,16,4.30
2012,09,09,17,17,4.80
2012,09,09,17,18,4.10
2012,09,09,17,19,8.90
2012,09,09,17,20,4.20
2012,09,09,17,21,6.80
2012,09,09,17,22,8.60
2012,09,09,17,23,6.40
2012,09,09,17,24,6.20
2012,09,09,17,25,4.10
2012,09,09,17,26,9.80
2012,09,09,17,27,10.50
2012,09,09,17,28,9.90
2012,09,09,17,29,9.50
2012,09,09,17,30,13.00
2012,09,09,17,31,7.60
2012,09,09,17,32,6.70
2012,09,09,17,33,4.00
2012,09,09,17,34,8.30
2012,09,09,17,35,11.00
2012,09,09,17,36,12.20
2012,09,09,17,37,6.40
2012,09,09,17,38,4.70
2012,09,09,17,39,6.90
2012,09,09,17,40,3.10
2012,09,09,17,41,4.10
2012,09,09,17,42,10.60
2012,09,09,17,43,6.20
2012,09,09,17,44,3.70
2012,09,09,17,45,2.90
2012,09,09,17,46,4.00
2012,09,09,17,47,1.60
2012,09,09,17,48,5.90
2012,09,09,17,49,7.40
2012,09,09,17,50,7.20
2012,09,09,17,51,3.80
2012,09,09,17,52,10.30
2012,09,09,17,53,12.30
2012,09,09,17,54,2.60
2012,09,09,17,55,7.50
2012,09,09,17,56,4.80
2012,09,09,17,57,5.10
2012,09,09,17,58,2.00
2012,09,09,17,59,3.30
2012,09,09,18,00,8.50
2012,09,09,18,01,8.10
2012,09,09,18,02,4.60
2012,09,09,18,03,14.20